Latest Weather Observations for Mount Lofty

IDS60801

Issued at 7:21 pm CST Monday 4 May 2026 (issued every 10 minutes, with the page automatically refreshed every 10 minutes)

About weather observations | Map of weather stations | Latest weather observations for SA | Other Formats
Station Details ID: 023842 Name: MOUNT LOFTY Lat: -34.98 Lon: 138.71 Height: 685.0 m
Data from the previous 72 hours. | See also: Recent months at Mount Lofty
Date/Time
CST
Temp
°C
App
Temp
°C
Dew
Point
°C
Rel
Hum
%
Delta-T
°C
Wind Press
QNH
hPa
Press
MSL
hPa
Rain since
9am
mm
Dir  Spd
km/h
Gust
km/h
Spd
kts
Gust
kts
04/07:00pm 10.0 8.6 9.5 97 0.3 W 7 11 4 6 - - 0.2
04/06:30pm 10.1 7.9 9.3 95 0.4 W 11 24 6 13 - - 0.2
04/06:00pm 10.6 8.9 9.7 94 0.5 W 9 17 5 9 - - 0.2
04/05:30pm 10.8 9.0 9.6 92 0.6 W 9 19 5 10 - - 0.2
04/05:00pm 11.1 8.9 9.2 88 1.0 W 11 19 6 10 - - 0.2
04/04:30pm 11.4 8.8 9.3 87 1.1 W 13 22 7 12 - - 0.2
04/04:00pm 11.4 8.6 8.4 82 1.5 W 13 24 7 13 - - 0.2
04/03:30pm 11.9 9.0 8.2 78 1.9 W 13 28 7 15 - - 0.2
04/03:00pm 12.6 10.5 9.8 83 1.5 W 11 28 6 15 - - 0.2
04/02:30pm 12.9 10.4 9.7 81 1.7 W 13 24 7 13 - - 0.2
04/02:00pm 11.4 8.7 9.1 86 1.2 W 13 22 7 12 - - 0.2
04/01:30pm 12.4 10.4 10.1 86 1.2 W 11 20 6 11 - - 0.2
04/01:00pm 12.1 10.3 10.8 92 0.7 W 11 20 6 11 - - 0.2
04/12:30pm 11.2 9.4 10.9 98 0.2 W 11 22 6 12 - - 0.2
04/12:00pm 10.9 8.3 10.7 99 0.1 W 15 24 8 13 - - 0.2
04/11:30am 10.1 8.1 10.0 99 0.1 W 11 22 6 12 - - 0.2
04/11:00am 10.6 8.3 10.4 99 0.1 W 13 22 7 12 - - 0.2
04/10:30am 10.5 8.5 10.3 99 0.1 W 11 22 6 12 - - 0.2
04/10:00am 10.2 8.6 10.1 99 0.1 W 9 19 5 10 - - 0.2
04/09:30am 10.4 8.4 10.2 99 0.1 W 11 20 6 11 - - 0.2
04/09:00am 10.2 7.8 10.1 99 0.1 W 13 26 7 14 - - 29.2
04/08:30am 10.2 7.8 10.1 99 0.1 W 13 26 7 14 - - 26.8
04/08:00am 10.2 8.2 10.1 99 0.1 WNW 11 26 6 14 - - 26.6
04/07:30am 10.2 7.8 10.1 99 0.1 W 13 26 7 14 - - 26.2
04/07:00am 9.8 6.9 9.7 99 0.1 WNW 15 33 8 18 - - 24.8
04/06:30am 10.0 6.8 9.9 99 0.1 WNW 17 35 9 19 - - 23.2
04/06:00am 10.1 6.4 10.0 99 0.1 WNW 20 44 11 24 - - 22.6
04/05:30am 10.0 5.8 9.9 99 0.1 WNW 22 39 12 21 - - 22.2
04/05:00am 9.9 6.1 9.8 99 0.1 WNW 20 48 11 26 - - 21.8
04/04:30am 9.8 6.0 9.7 99 0.1 WNW 20 35 11 19 - - 21.4
04/04:00am 9.7 5.5 9.6 99 0.1 WNW 22 41 12 22 - - 21.0
04/03:30am 9.7 5.8 9.6 99 0.1 WNW 20 43 11 23 - - 21.0
04/03:00am 9.6 4.2 9.5 99 0.1 WNW 28 46 15 25 - - 20.6
04/02:30am 9.6 5.3 9.5 99 0.1 WNW 22 46 12 25 - - 20.6
04/02:00am 9.6 5.3 9.5 99 0.1 WNW 22 39 12 21 - - 20.6
04/01:36am 9.5 4.1 9.4 99 0.1 WNW 28 48 15 26 - - 20.6
04/01:30am 9.6 4.6 9.5 99 0.1 WNW 26 43 14 23 - - 20.6
04/01:00am 9.5 4.8 9.4 99 0.1 WNW 24 39 13 21 - - 20.2
04/12:30am 9.4 5.1 9.3 99 0.1 WNW 22 39 12 21 - - 17.4
04/12:00am 9.2 4.8 9.1 99 0.1 WNW 22 39 12 21 - - 14.4
 
Date/Time
CST
Temp
°C
App
Temp
°C
Dew
Point
°C
Rel
Hum
%
Delta-T
°C
Wind Press
QNH
hPa
Press
MSL
hPa
Rain since
9am
mm
Dir  Spd
km/h
Gust
km/h
Spd
kts
Gust
kts
03/11:30pm 9.2 4.8 9.1 99 0.1 WNW 22 41 12 22 - - 13.4
03/11:00pm 8.7 4.6 8.6 99 0.1 WNW 20 39 11 21 - - 13.4
03/10:30pm 9.4 5.5 9.3 99 0.1 WNW 20 35 11 19 - - 10.0
03/10:00pm 9.1 5.1 9.0 99 0.1 WNW 20 37 11 20 - - 10.0
03/09:30pm 8.8 4.7 8.7 99 0.1 WNW 20 35 11 19 - - 10.0
03/09:00pm 9.6 5.7 9.5 99 0.1 WNW 20 46 11 25 - - 9.8
03/08:30pm 9.8 5.6 9.7 99 0.1 WNW 22 41 12 22 - - 9.8
03/08:00pm 9.5 5.2 9.4 99 0.1 WNW 22 41 12 22 - - 9.8
03/07:30pm 9.7 6.0 9.6 99 0.1 WNW 19 37 10 20 - - 9.2
03/07:00pm 10.1 6.5 9.8 98 0.2 WNW 19 32 10 17 - - 5.4
03/06:30pm 9.8 5.2 9.5 98 0.2 WNW 24 44 13 24 - - 2.6
03/06:04pm 9.0 3.3 8.4 96 0.3 WNW 28 48 15 26 - - 2.2
03/06:00pm 9.4 4.1 8.6 95 0.4 WNW 26 50 14 27 - - 1.8
03/05:30pm 10.3 5.7 9.8 97 0.3 WNW 24 50 13 27 - - 0.6
03/05:00pm 10.0 5.0 9.5 97 0.3 WNW 26 48 14 26 - - 0.4
03/04:53pm 10.0 4.6 9.5 97 0.3 WNW 28 48 15 26 - - 0.4
03/04:30pm 10.1 5.5 9.8 98 0.2 WNW 24 50 13 27 - - 0.4
03/04:26pm 9.9 4.5 9.6 98 0.2 WNW 28 50 15 27 - - 0.4
03/04:00pm 10.0 5.4 9.7 98 0.2 WNW 24 43 13 23 - - 0.4
03/03:42pm 9.5 4.0 9.2 98 0.2 WNW 28 50 15 27 - - 0.4
03/03:30pm 9.5 4.3 9.0 97 0.3 WNW 26 52 14 28 - - 0.4
03/03:00pm 11.2 4.6 7.7 79 1.8 WNW 32 54 17 29 - - 0.2
03/02:32pm 11.0 5.2 7.9 81 1.6 WNW 28 48 15 26 - - 0.2
03/02:30pm 10.9 5.5 7.8 81 1.6 WNW 26 48 14 26 - - 0.2
03/02:00pm 11.1 5.3 8.0 81 1.6 WNW 28 48 15 26 - - 0.2
03/01:40pm 10.9 5.0 7.4 79 1.7 WNW 28 65 15 35 - - 0.2
03/01:30pm 11.2 6.3 8.4 83 1.4 WNW 24 50 13 27 - - 0.2
03/01:00pm 10.9 4.8 8.1 83 1.4 WNW 30 56 16 30 - - 0.2
03/12:30pm 10.2 4.2 8.5 89 0.9 WNW 30 50 16 27 - - 0.2
03/12:00pm 10.5 4.0 8.9 90 0.8 WNW 33 63 18 34 - - 0.2
03/11:30am 9.9 4.6 9.8 99 0.1 WNW 28 52 15 28 - - 0.2
03/11:00am 8.8 3.2 8.7 99 0.1 WNW 28 54 15 29 - - 0.2
03/10:30am 8.8 3.2 8.7 99 0.1 WNW 28 52 15 28 - - 0.2
03/10:00am 8.7 2.7 8.6 99 0.1 WNW 30 50 16 27 - - 0.0
03/09:30am 8.6 2.6 8.5 99 0.1 WNW 30 57 16 31 - - 0.0
03/09:21am 8.4 2.3 8.3 99 0.0 WNW 30 57 16 31 - - 0.0
03/09:00am 8.2 2.8 8.1 99 0.0 WNW 26 41 14 22 - - 24.8
03/08:30am 8.1 2.7 8.0 99 0.0 WNW 26 44 14 24 - - 24.8
03/08:00am 8.0 3.0 7.9 99 0.0 WNW 24 41 13 22 - - 24.8
03/07:30am 8.1 3.1 8.0 99 0.0 NW 24 41 13 22 - - 24.8
03/07:00am 8.2 3.6 8.1 99 0.0 NW 22 39 12 21 - - 23.8
03/06:30am 8.3 4.3 8.2 99 0.0 NW 19 28 10 15 - - 23.0
03/06:00am 8.5 4.3 8.4 99 0.1 NW 20 41 11 22 - - 21.8
03/05:30am 8.4 3.8 8.3 99 0.0 WNW 22 37 12 20 - - 21.2
03/05:00am 8.5 4.0 8.4 99 0.1 NW 22 37 12 20 - - 21.2
03/04:30am 8.5 4.3 8.4 99 0.1 NW 20 37 11 20 - - 21.2
03/04:00am 8.7 4.2 8.6 99 0.1 NW 22 37 12 20 - - 21.2
03/03:30am 8.6 4.1 8.5 99 0.1 NW 22 35 12 19 - - 21.0
03/03:00am 8.8 4.7 8.7 99 0.1 NW 20 37 11 20 - - 20.6
03/02:30am 8.6 4.7 8.5 99 0.1 WNW 19 35 10 19 - - 19.8
03/02:00am 8.8 4.3 8.7 99 0.1 NW 22 39 12 21 - - 17.8
03/01:30am 8.8 4.3 8.7 99 0.1 NW 22 37 12 20 - - 17.8
03/01:00am 8.8 4.7 8.7 99 0.1 WNW 20 37 11 20 - - 17.8
03/12:30am 9.1 4.7 9.0 99 0.1 WNW 22 33 12 18 - - 17.8
03/12:00am 9.4 5.1 9.3 99 0.1 WNW 22 41 12 22 - - 17.8
 
Date/Time
CST
Temp
°C
App
Temp
°C
Dew
Point
°C
Rel
Hum
%
Delta-T
°C
Wind Press
QNH
hPa
Press
MSL
hPa
Rain since
9am
mm
Dir  Spd
km/h
Gust
km/h
Spd
kts
Gust
kts
02/11:30pm 9.5 5.2 9.4 99 0.1 NW 22 41 12 22 - - 17.8
02/11:00pm 9.9 6.1 9.8 99 0.1 NW 20 35 11 19 - - 17.8
02/10:30pm 10.1 6.4 10.0 99 0.1 NW 20 37 11 20 - - 17.8
02/10:00pm 10.4 6.3 10.2 99 0.1 WNW 22 39 12 21 - - 17.8
02/09:30pm 10.8 6.5 10.6 99 0.1 NW 24 43 13 23 - - 17.8
02/09:00pm 10.5 6.8 10.3 99 0.1 NW 20 39 11 21 - - 17.8
02/08:30pm 10.5 6.8 10.3 99 0.1 NW 20 37 11 20 - - 17.8
02/08:00pm 10.6 7.5 10.4 99 0.1 NW 17 28 9 15 - - 17.8
02/07:30pm 10.7 7.7 10.5 99 0.1 NW 17 32 9 17 - - 17.8
02/07:00pm 10.9 7.5 10.7 99 0.1 WNW 19 28 10 15 - - 17.8
02/06:30pm 10.9 7.9 10.7 99 0.1 NW 17 33 9 18 - - 17.8
02/06:00pm 10.9 8.3 10.7 99 0.1 NW 15 28 8 15 - - 17.8
02/05:30pm 10.7 7.7 10.5 99 0.1 NW 17 28 9 15 - - 17.8
02/05:00pm 10.6 7.9 10.4 99 0.1 WNW 15 28 8 15 - - 17.8
02/04:30pm 10.6 7.2 10.4 99 0.1 WNW 19 35 10 19 - - 15.4
02/04:00pm 11.0 8.4 10.8 99 0.1 NW 15 24 8 13 - - 14.0
02/03:30pm 10.9 7.5 10.7 99 0.1 WNW 19 33 10 18 - - 12.0
02/03:00pm 11.7 8.6 11.5 99 0.1 WNW 19 28 10 15 - - 9.0
02/02:30pm 11.7 9.7 11.4 98 0.2 WNW 13 30 7 16 - - 8.0
02/02:00pm 11.9 9.2 11.6 98 0.2 NW 17 30 9 16 - - 5.6
02/01:30pm 12.0 9.3 11.7 98 0.2 NW 17 30 9 16 - - 3.4
02/01:00pm 12.1 9.8 11.6 97 0.3 WNW 15 28 8 15 - - 2.6
02/12:30pm 13.3 10.8 12.2 93 0.6 WNW 17 30 9 16 - - 1.2
02/12:00pm 13.7 11.8 13.1 96 0.3 WNW 15 28 8 15 - - 1.2
02/11:30am 15.4 11.4 10.6 73 2.6 NW 22 43 12 23 - - 1.2
02/11:00am 15.8 11.7 10.1 69 3.1 NNW 22 41 12 22 - - 1.2
02/10:30am 15.9 10.6 9.8 67 3.3 NNW 28 54 15 29 - - 1.2
02/10:26am 15.9 10.4 9.3 65 3.5 NNW 28 54 15 29 - - 1.2
02/10:00am 15.9 11.6 9.3 65 3.5 NNW 22 43 12 23 - - 1.2
02/09:30am 14.8 10.7 10.0 73 2.6 NNW 22 39 12 21 - - 1.2
02/09:00am 14.1 9.8 10.9 81 1.7 NNW 24 50 13 27 - - 1.0
02/08:30am 17.0 12.5 8.4 57 4.6 NNW 22 50 12 27 - - 0.0
02/08:00am 18.6 14.1 6.8 46 6.1 NW 20 39 11 21 - - 0.0
02/07:36am 19.6 13.5 6.4 42 6.8 NNW 28 50 15 27 - - 0.0
02/07:30am 19.9 14.1 6.3 41 7.0 NNW 26 50 14 27 - - 0.0
02/07:00am 20.3 15.6 5.9 39 7.4 N 20 41 11 22 - - 0.0
02/06:30am 20.1 16.0 6.1 40 7.2 N 17 41 9 22 - - 0.0
02/06:00am 19.3 15.6 6.4 43 6.7 NNE 15 32 8 17 - - 0.0
02/05:30am 19.4 14.9 6.2 42 6.8 N 19 43 10 23 - - 0.0
02/05:00am 19.4 14.9 6.2 42 6.8 N 19 43 10 23 - - 0.0
02/04:30am 19.4 14.8 5.8 41 7.0 NNE 19 39 10 21 - - 0.0
02/04:00am 19.3 15.2 6.1 42 6.8 NNE 17 39 9 21 - - 0.0
02/03:30am 19.5 14.9 6.3 42 6.8 NNE 20 35 11 19 - - 0.0
02/03:00am 19.4 14.9 6.2 42 6.8 NNE 19 37 10 20 - - 0.0
02/02:30am 19.3 15.6 6.1 42 6.8 NNE 15 33 8 18 - - 0.0
02/02:00am 19.3 14.2 6.1 42 6.8 NNE 22 41 12 22 - - 0.0
02/01:30am 19.2 15.1 6.0 42 6.8 NNE 17 41 9 22 - - 0.0
02/01:00am 19.2 14.7 6.0 42 6.8 NNE 19 46 10 25 - - 0.0
02/12:30am 19.4 14.6 5.5 40 7.1 NNE 20 44 11 24 - - 0.0
02/12:00am 19.7 15.3 4.6 37 7.6 NNE 17 30 9 16 - - 0.0
 
Date/Time
CST
Temp
°C
App
Temp
°C
Dew
Point
°C
Rel
Hum
%
Delta-T
°C
Wind Press
QNH
hPa
Press
MSL
hPa
Rain since
9am
mm
Dir  Spd
km/h
Gust
km/h
Spd
kts
Gust
kts
01/11:30pm 20.0 15.7 5.3 38 7.5 NNE 17 35 9 19 - - 0.0
01/11:00pm 19.8 15.9 5.5 39 7.3 NNE 15 35 8 19 - - 0.0
01/10:30pm 20.1 15.9 5.7 39 7.4 NNE 17 39 9 21 - - 0.0
01/10:00pm 19.8 16.1 6.5 42 6.9 NE 15 33 8 18 - - 0.0
01/09:30pm 19.6 16.0 6.7 43 6.7 NNE 15 32 8 17 - - 0.0
01/09:00pm 19.9 15.5 6.6 42 6.9 NNE 19 32 10 17 - - 0.0
01/08:30pm 19.9 16.3 6.6 42 6.9 NNE 15 33 8 18 - - 0.0
01/08:00pm 20.0 16.4 6.7 42 6.9 NNE 15 28 8 15 - - 0.0
01/07:30pm 20.3 17.5 7.0 42 7.0 NNE 11 22 6 12 - - 0.0

Other formats

Comma delimited format used in spreadsheet applications
http://www.bom.gov.au/fwo/IDS60801/IDS60801.95678.axf

JavaScript Object Notation format (JSON) in row-major order
http://www.bom.gov.au/fwo/IDS60801/IDS60801.95678.json

Data quality

Most of these data are generated automatically and are frequently updated. Quality checks on data are not normally performed. It is possible for incorrect values to appear. Refer to information at About Latest Weather Observations and please check the disclaimer before using these data.